Location: Newark
(8.8858°N, 64.2608°W)
Time: 01:36:51
(UTC+00:00)

Hubble Space Telescope - Visible Passes

Search period start: 22 September 2020 00:00
Search period end: 02 October 2020 00:00
Orbit: 536 x 540 km, 28.5° (Epoch: 21 September)

Date Brightness Start Highest point End Pass type
(mag) Time Alt. Az. Time Alt. Az. Time Alt. Az.
22 Sep 2.2 08:20:04 32° NE 08:20:04 32° NE 08:22:27 10° NE visible
23 Sep 3.1 08:10:15 19° NE 08:10:15 19° NE 08:11:36 10° NE visible
23 Sep 3.1 09:48:18 10° NNW 09:49:17 11° NNW 09:50:16 10° N visible
24 Sep 3.7 08:00:22 12° NE 08:00:22 12° NE 08:00:41 10° NE visible
